Regional Weather Roundup
Issued by NWS

Home | Current Version | Previous Version | Graphics & Text | Print | Product List | Glossary On
Versions: 1 2 3 4 5 6 7 8 9 10 11 12 13 14 15 16 17 18 19 20 21 22 23 24 25 26 27 28 29 30 31 32 33 34 35 36 37 38 39 40 41 42 43 44 45 46 47 48 49 50
000
ASUS43 KLOT 290008
RWRIL

ILLINOIS REGIONAL WEATHER ROUNDUP
NATIONAL WEATHER SERVICE CHICAGO/ROMEOVILLE IL
700 PM CDT SAT MAY 28 2016

NOTE: "FAIR" INDICATES FEW OR NO CLOUDS BELOW 12,000 FEET WITH NO
SIGNIFICANT WEATHER AND/OR OBSTRUCTIONS TO VISIBILITY.

* THESE STATIONS ARE NOT UNDER NWS QUALITY CONTROL. THEY ALSO MAY NOT
  REPORT WEATHER SUCH AS PRECIPITATION OR FOG.

ILZ001-002-007-009-015-016-024-290100-
NORTHWEST ILLINOIS

CITY           SKY/WX    TMP DP  RH WIND       PRES   REMARKS
MOLINE         PTSUNNY   80  62  54 SW14G23   29.83R HX  81
6HR MIN TEMP:  69; 6HR MAX TEMP:  84; 6HR PCP:  0.12;

STERLING*      LGT RAIN  70  65  84 S6        29.85R
SAVANNA*       CLOUDY    71  67  87 S7        29.83F
$$

ILZ003-004-008-010-011-017-018-290100-
NORTH CENTRAL ILLINOIS

CITY           SKY/WX    TMP DP  RH WIND       PRES   REMARKS
ROCKFORD       PTSUNNY   82  58  43 SW18G31   29.86R THUNDER HX  82
6HR MIN TEMP:  78; 6HR MAX TEMP:  85;

FREEPORT*      TSTM      65  63  92 CALM      29.89R
ROCHELLE*      MOSUNNY   81  60  48 S25G31    29.85R HX  81
DE KALB*       PTSUNNY   80  65  59 S20G25    29.87R HX  82
$$

ILZ005-006-012>014-019>023-290100-
NORTHEAST ILLINOIS

CITY           SKY/WX    TMP DP  RH WIND       PRES   REMARKS
CHICAGO-OHARE  PTSUNNY   79  64  60 S22G30    29.88R HX  81
6HR MIN TEMP:  74; 6HR MAX TEMP:  81;

CHICAGO-MIDWAY PTSUNNY   82  62  50 S16G25    29.89R HX  83
6HR MIN TEMP:  76; 6HR MAX TEMP:  83;

AURORA         PTSUNNY   82  67  60 S18G30    29.87R HX  84
6HR MIN TEMP:  78; 6HR MAX TEMP:  85;

LANSING*       SUNNY     79  63  58 S16G23    29.92R HX  80
JOLIET*        MOSUNNY   82  66  58 S18G24    29.90R HX  83
WAUKEGAN       SUNNY     79  65  62 S9        29.87R HX  81
6HR MIN TEMP:  75; 6HR MAX TEMP:  81; 6HR PCP: TRACE;

DUPAGE AIRPORT MOSUNNY   79  64  60 S21G26    29.87R HX  81
6HR MIN TEMP:  75; 6HR MAX TEMP:  83;

KANKAKEE*      SUNNY     80  63  57 S15G23    29.93R HX  81
WHEELING       MOSUNNY   80  64  58 S18G30    29.89R HX  82
6HR MIN TEMP:  75; 6HR MAX TEMP:  82;

MORRIS*        MOSUNNY   81  66  60 S20G25    29.88R HX  83
ROMEOVILLE*    MOSUNNY   81  61  50 S22G28    29.89R HX  82
NORTHERLY ISL    N/A     81  61  50 S12         N/A  HX  82
NORTHERLY ISL    N/A     81  61  50 S12         N/A  HX  82
$$

LMZ740>746-290100-
SOUTHERN LAKE MICHIGAN

STATION/POSITION SKY/WX   TEMP    WIND        PRES    VSBY  WAVE
                          AIR SEA DIR/SP/G                  HT/PER
                          (F)     (DEG/KT/KT) (MB)    (MI)  (FT/S)
SOUTHERN BUOY              58 50  140/ 10/ 12 1012.2R         1/ 4
WILMETTE HARBOR            65 54  200/ 10/ 14   N/A           2/ 3
HARRISON CRIB              76     190/ 23/ 26   N/A
BURNHAM HARBOR             81     180/ 17/ 21   N/A
CALUMET HARBOR             82     180/ 17/ 22   N/A
BURNS HARBOR               80     190/ 17/ 24 1013.2S
MICHIGAN CITY              81     180/ 18/ 21   N/A
MICHIGAN CITY 6N           71 57  200/ 10/ 12   N/A           2/ 3
ST. JOSEPH                 71 61  190/ 10/ 12   N/A           2/ 3
$$

ILZ025>027-034>036-040-047-049-050-058-095>099-290100-
WEST-CENTRAL ILLINOIS

CITY           SKY/WX    TMP DP  RH WIND       PRES   REMARKS
QUINCY         MOSUNNY   79  59  50 SW14      29.88R HX  80
MACOMB*        CLOUDY    78  67  69 S8        29.89R HX  80
JACKSONVILLE*  CLOUDY    81  65  59 S12G21    29.88S HX  83
PITTSFIELD*    LGT RAIN  77  65  67 S16G25    29.90R
$$

ILZ028>032-037-038-041>044-048-051>054-059>061-290100-
CENTRAL ILLINOIS

CITY           SKY/WX    TMP DP  RH WIND       PRES   REMARKS
PONTIAC        PTSUNNY   82  67  61 S23G29    29.91R HX  84
BLOOMINGTON    CLOUDY    81  69  66 S24       29.92R HX  84
DECATUR        CLOUDY    79  66  64 S20       29.93R HX  81
PEORIA         MOSUNNY   81  63  54 S18       29.86S HX  82
6HR MIN TEMP:  79; 6HR MAX TEMP:  85;

LACON*         MOSUNNY   82  60  47 SW12G20   29.85S HX  82
LINCOLN*       CLOUDY    82  67  60 S18G24    29.90R HX  85
SPRINGFIELD    CLOUDY    82  67  60 S18G24    29.90R HX  84
6HR MIN TEMP:  82; 6HR MAX TEMP:  86;

TAYLORVILLE    MOSUNNY   79  68  68 S16       29.93R HX  81
6HR MIN TEMP:  79; 6HR MAX TEMP:  83;

$$

ILZ033-039-045-046-055>057-062-063-290100-
EAST-CENTRAL ILLINOIS

CITY           SKY/WX    TMP DP  RH WIND       PRES   REMARKS
CHAMPAIGN      MOSUNNY   79  66  64 S22G28    29.94S HX  81
RANTOUL*       SUNNY     80  67  64 S16G23    29.94S HX  82
MATTOON        MOSUNNY   78  66  66 S13       29.96R HX  80
PARIS*         MOSUNNY   77  68  72 S9        29.99R
$$

ILZ079-100>102-290100-
SOUTHWEST ILLINOIS

CITY           SKY/WX    TMP DP  RH WIND       PRES   REMARKS
ALTON          PTSUNNY   79  66  65 S16       29.93R HX  81
BELLEVILLE     CLOUDY    79  68  68 VRB5      29.94R HX  81
CAHOKIA*       PTSUNNY   81  65  58 S9G22     29.93R HX  83
SPARTA*        MOSUNNY   79  67  68 S13G18    29.98R HX  81
$$

ILZ064>066-069>071-074>076-080>082-084>086-088>090-092>094-290100-
SOUTH-CENTRAL ILLINOIS

CITY           SKY/WX    TMP DP  RH WIND       PRES   REMARKS
CARBONDALE     MOSUNNY   78  66  66 S13G20    29.99R HX  80
6HR MIN TEMP:  78; 6HR MAX TEMP:  82;

CAIRO*         MOSUNNY   79  70  74 S6        30.00S HX  82
EFFINGHAM*     PTSUNNY   78  69  74 SE8       29.99R
MARION         MOSUNNY   79  70  73 S7        30.00S HX  81
MT. VERNON     PTSUNNY   79  64  61 S10       30.00R HX  81
CENTRALIA*     PTSUNNY   78  69  73 S13G18    29.97R HX  81
SALEM*         PTSUNNY   80  68  66 S8G16     29.97R HX  82
METROPOLIS*    PTSUNNY   82  71  68 S7        30.01S HX  86
$$

ILZ067-068-072-073-078-083-087-091-290100-
SOUTHEAST ILLINOIS

CITY           SKY/WX    TMP DP  RH WIND       PRES   REMARKS
LAWRENCEVILLE  MOSUNNY   81  67  62 S15       30.01R HX  83
FLORA*         MOSUNNY   80  67  64 S10       29.99R HX  82
FAIRFIELD*     PTSUNNY   79  68  68 S8        29.99R HX  82
HARRISBURG*    MOSUNNY   80  69  69 S10       30.01R HX  83
ROBINSON*      MOSUNNY   77  67  70 S10G16    30.01R
CARMI*         PTSUNNY   78  69  74 S10       30.00S
$$

ABBREVIATIONS USED IN REMARKS
   TC - TEMPERATURE IN CELSIUS
  WCI - WIND CHILL INDEX
   HX - HEAT INDEX
  VSB - VISIBILITY
$$





USA.gov is the U.S. government's official web portal to all federal, state and local government web resources and services.